Location: *
(6.0000°S, 32.3997°W)
Time: 19:24:25
(UTC+00:00)

ADEOS Rocket - Pass Details

Date: 01 April 2020
Orbit: 858 x 1307 km, 98.7° (Epoch: 27 May)

Event Time Altitude Azimuth Distance (km) Brightness Sun altitude
Rises 20:33:15 0° 3° (N) 3,588 6.0 -5.5°
Reaches altitude 10° 20:35:47 10° 359° (N) 2,599 5.3 -6.1°
Maximum altitude 20:41:20 53° 283° (WNW) 1,064 3.8 -7.5°
Drops below altitude 10° 20:46:40 10° 206° (SSW) 2,498 5.5 -8.8°
Sets 20:49:04 0° 201° (SSW) 3,436 6.1 -9.4°
